Notices

What's New in latest Release from April 7th, 2021:

- Updated Glossary, including Speed of Maximum Gust, and Total Hourly Precipitation

- Updated national and regional climate services offices contacts and prices information

- Addition of station inventory lists for 1981-2010, 1971-2000, and 1961-1990 Normals.

If you haven't already, please take our survey and provide feedback about our website: https://eccc.sondage-survey.ca/f/LanguageSelection.aspx?s=442ca660-fcf1-47c0-95a9-59707d6fd709

Hourly Data Report for January 18, 2017

TORONTO CITY
ONTARIO

43°40'00.000" N
79°24'00.000" W
112.50 m
6158355
71508
XTO

Download Data

Hourly Data (January 2017)
Hourly Data Report for January 18, 2017
TIME
LST
Temp Definition
°C
Dew Point Definition
°C
Rel Hum Definition
%
Precip. Amount Definition
mm

Wind Dir Definition
10's deg

Wind Spd Definition
km/h
Visibility Definition
km
Stn Press Definition
kPa
Hmdx Definition


Wind Chill Definition


Weather Definition


00:00 1.9 1.1 94 0.0 LegendMM LegendMM   99.57     LegendNANA
01:00 2.1 1.2 94 0.0 LegendMM LegendMM   99.60     LegendNANA
02:00 1.9 1.2 95 0.0 LegendMM LegendMM   99.64     LegendNANA
03:00 1.9 1.3 96 0.2 LegendMM LegendMM   99.68     LegendNANA
04:00 2.0 1.5 96 0.0 LegendMM LegendMM   99.70     LegendNANA
05:00 2.1 1.6 97 0.0 LegendMM LegendMM   99.76     LegendNANA
06:00 2.3 1.8 96 0.2 LegendMM LegendMM   99.82     LegendNANA
07:00 2.5 1.6 94 0.0 LegendMM LegendMM   99.86     LegendNANA
08:00 2.7 1.6 92 0.0 LegendMM LegendMM   99.92     LegendNANA
09:00 3.0 1.6 91 0.0 LegendMM LegendMM   99.98     LegendNANA
10:00 3.2 1.4 88 0.0 LegendMM LegendMM   100.11     LegendNANA
11:00 2.9 1.2 89 0.0 LegendMM LegendMM   100.11     LegendNANA
12:00 3.2 1.0 85 0.0 LegendMM LegendMM   100.07     LegendNANA
13:00 3.5 1.1 84 0.0 LegendMM LegendMM   100.05     LegendNANA
14:00 4.2 1.3 82 0.0 LegendMM LegendMM   100.06     LegendNANA
15:00 4.2 0.8 79 0.0 LegendMM LegendMM   100.16     LegendNANA
16:00 4.0 1.0 81 0.0 LegendMM LegendMM   100.24     LegendNANA
17:00 3.9 1.1 82 0.0 LegendMM LegendMM   100.22     LegendNANA
18:00 3.8 1.1 82 0.0 LegendMM LegendMM   100.18     LegendNANA
19:00 3.7 1.1 84 0.0 LegendMM LegendMM   100.18     LegendNANA
20:00 3.5 1.0 84 0.0 LegendMM LegendMM   100.16     LegendNANA
21:00 3.5 1.2 85 0.0 LegendMM LegendMM   100.13     LegendNANA
22:00 3.5 1.4 86 0.0 LegendMM LegendMM   100.16     LegendNANA
23:00 3.8 1.8 87 0.0 LegendMM LegendMM   100.15     LegendNANA

Notes on Data Quality.

Legend

  • E = Estimated
  • M = Missing
  • NA = Not Available*
  • [empty] = Indicates an unobserved value
Date modified: